Vorticity
15 14 14 14 13 13 13 13 12 11 11 11 10 10 10 10 10 10 9 9 9 8 7 7 8 8 9 10 11 11 11 11 12 12 12 12 12 12 12 12 11 11 11 10 10 11 11 11 11 11 11 10 10 10 9 9 9 9 9 9 10 10 10 10 9 9 9 9 8
15 15 15 15 15 15 15 15 15 15 15 15 15 14 14 14 13 12 11 10 10 9 9 10 11 12 12 12 12 13 13 12 12 12 12 12 12 13 13 13 12 12 12 11 11 11 11 10 10 10 9 9 8 8 9 8 9 10 10 10 10 10 10 10 9 9 9 9 9
14 14 14 14 14 14 14 15 15 16 16 17 17 16 16 15 15 14 13 13 13 14 14 14 14 14 13 12 12 12 13 13 12 12 12 12 11 12 12 12 12 12 12 12 12 12 12 11 11 11 10 10 10 10 10 10 10 10 10 10 9 9 9 9 9 8 8 8 8
12 12 12 12 12 12 11 11 12 12 13 13 14 14 15 15 15 15 15 15 15 14 13 11 10 9 8 8 9 9 10 11 11 10 10 10 9 9 9 10 10 10 10 10 10 10 10 10 10 10 10 10 10 10 10 9 9 9 9 9 8 8 8 8 7 7 7 7 7
11 11 11 11 11 10 10 9 9 9 9 9 9 9 9 9 10 9 9 8 7 6 5 4 4 4 4 5 6 7 7 8 8 8 7 7 7 7 7 7 7 7 7 7 7 8 8 8 8 8 8 8 9 9 8 8 9 9 9 9 9 8 8 8 8 8 8 8 8
12 12 11 11 10 10 9 8 7 6 6 5 4 4 3 3 3 3 3 3 3 3 3 3 4 5 5 6 7 7 7 7 7 7 7 6 6 6 6 6 7 7 7 7 7 8 8 8 9 9 10 10 10 10 11 11 11 11 11 12 12 12 12 12 12 12 12 12 12
16 15 14 13 12 11 10 9 8 7 6 5 5 4 4 4 5 5 6 6 7 8 9 9 10 10 10 10 11 11 10 10 10 10 10 10 10 10 11 11 11 11 12 12 12 12 13 14 14 14 14 15 15 15 16 17 16 16 16 17 17 17 17 16 16 16 16 16 15
17 17 16 16 15 14 13 12 11 11 10 10 9 10 10 10 11 12 13 13 14 14 14 15 15 15 15 15 15 15 15 15 15 15 15 15 15 15 15 15 15 16 16 17 17 17 18 18 19 18 18 19 19 19 19 20 19 19 19 19 19 19 20 19 19 19 18 18 18
11 12 13 14 14 14 14 14 13 13 13 13 14 14 14 15 15 16 16 16 16 16 16 16 16 16 16 16 16 16 16 16 16 16 16 16 16 16 16 17 17 17 17 18 18 18 18 18 18 18 18 18 18 18 18 18 18 18 19 19 18 18 18 18 18 18 18 18 18
5 6 7 8 9 10 11 12 12 12 13 13 14 14 14 14 14 14 14 14 14 14 14 14 14 14 14 14 14 14 14 14 14 14 14 14 14 14 14 14 15 15 15 15 15 15 15 14 14 14 14 14 14 14 14 14 14 14 14 14 14 14 14 14 14 14 14 14 14
3 4 4 4 5 6 7 7 8 8 9 9 9 9 9 9 9 9 9 9 9 9 9 9 9 9 9 9 10 10 10 10 10 10 10 10 10 11 11 11 10 10 10 10 10 10 10 10 10 10 10 10 10 10 10 10 10 10 10 10 10 10 9 10 10 10 10 10 10
6 6 5 5 5 5 5 5 5 5 5 5 5 5 5 6 6 6 6 6 6 7 7 7 7 7 7 7 7 7 7 7 8 8 8 8 8 8 8 8 8 8 8 8 8 8 9 9 9 9 9 9 9 9 9 9 9 9 9 9 9 9 9 9 9 9 9 9 9
12 11 10 10 9 8 8 7 7 7 7 7 7 7 7 7 7 8 8 8 8 8 8 8 8 9 9 8 8 9 9 9 9 9 9 9 9 9 9 9 9 9 9 10 10 10 11 11 11 11 11 11 11 12 12 12 12 12 12 12 12 12 12 12 12 12 12 12 12
16 16 15 14 14 13 13 13 12 12 12 13 13 12 12 12 12 12 12 12 12 12 12 12 12 12 12 12 12 12 12 12 12 12 12 12 12 12 12 12 12 13 13 13 13 14 14 14 15 15 15 15 15 15 15 15 15 15 15 15 15 15 15 15 15 15 15 15 15
16 16 16 16 16 16 16 16 16 16 17 17 17 17 16 16 15 15 15 15 14 14 14 14 14 15 15 15 15 15 15 15 15 15 15 15 15 15 15 15 15 15 15 15 15 16 16 16 16 16 17 17 16 16 16 16 16 16 16 16 16 16 16 16 16 16 16 16 16
13 13 14 14 14 14 15 15 15 15 16 16 16 16 15 15 14 14 14 14 14 14 15 15 15 15 16 16 16 16 16 17 17 16 16 16 16 16 15 15 15 15 15 15 15 15 15 15 15 15 15 15 15 15 15 15 14 14 14 14 14 14 14 14 14 14 14 14 14
10 10 11 11 11 11 11 11 12 12 12 12 12 12 12 11 11 11 11 11 12 12 13 13 13 14 14 15 15 15 16 16 16 16 16 16 15 15 15 15 15 14 14 14 14 13 13 13 12 12 12 12 12 12 12 11 11 11 11 11 11 11 11 11 11 11 11 11 11
9 10 10 10 10 10 11 11 11 10 10 10 10 10 9 9 9 9 9 9 9 9 10 10 10 11 11 12 12 13 13 13 14 14 14 14 13 13 13 13 13 12 12 12 11 11 10 10 10 9 9 9 9 9 9 9 9 8 8 8 8 8 8 8 8 8 8 8 8
9 9 10 10 10 11 11 11 11 11 11 11 11 11 10 10 9 9 9 9 9 8 8 8 8 9 9 9 9 9 10 10 10 10 10 11 11 11 11 10 10 10 10 10 9 9 9 8 8 8 8 8 8 8 8 8 8 8 8 8 7 7 7 7 7 7 7 7 7
8 8 8 9 10 10 11 12 12 12 13 13 12 12 12 11 11 10 10 10 10 10 9 9 9 9 8 8 8 8 8 8 8 8 9 9 9 9 9 9 9 9 9 9 9 9 9 9 9 10 10 10 10 10 11 11 11 11 11 11 11 11 11 11 11 11 11 11 11
6 7 7 7 8 9 10 11 12 12 13 13 12 12 12 12 12 12 12 12 12 12 12 11 11 11 11 10 10 10 10 10 10 10 10 10 10 10 11 11 11 11 12 12 12 12 13 13 14 14 15 15 16 16 16 16 16 17 17 17 17 17 17 17 17 17 17 17 17
5 5 5 6 7 8 9 10 11 11 11 11 11 11 11 12 12 13 13 13 14 14 14 13 13 13 13 13 14 13 13 14 14 14 13 14 14 14 14 14 15 15 15 15 16 16 16 17 18 18 19 19 19 19 19 19 20 20 20 20 21 21 21 21 22 22 22 22 22
4 4 5 5 6 7 7 8 8 9 8 8 8 9 9 10 11 11 12 12 13 13 13 14 14 14 15 15 15 15 16 16 16 16 16 16 16 16 16 16 16 16 16 16 16 16 16 16 17 17 17 17 17 17 17 17 17 17 18 18 18 19 19 19 20 20 20 20 20
5 6 6 6 6 7 7 7 7 7 7 6 6 7 7 8 8 9 9 10 10 11 11 12 12 13 13 14 14 14 15 15 15 15 14 14 14 14 14 14 14 14 13 13 13 12 12 12 12 12 12 12 11 11 11 11 11 12 12 12 12 12 12 12 12 13 13 13 13
6 7 7 8 8 8 7 7 7 6 6 6 6 6 6 7 7 7 7 7 8 8 8 9 9 10 10 11 11 11 11 11 11 10 10 10 10 10 10 10 10 10 9 8 8 8 8 8 7 7 6 6 6 6 6 6 6 6 6 6 6 6 6 6 6 6 5 5 5
6 7 7 8 8 8 8 8 7 7 6 6 6 7 7 6 6 6 6 6 6 6 7 7 7 7 8 8 8 8 8 8 7 7 7 6 6 6 6 6 6 6 6 5 5 4 4 4 4 4 3 3 3 3 3 3 3 3 3 3 3 3 3 3 3 3 2 2 2
6 6 7 7 7 8 8 8 8 8 8 8 8 8 7 7 7 7 7 6 6 6 6 6 6 6 6 6 6 6 5 5 5 5 5 4 4 4 4 5 5 4 4 3 3 2 2 2 2 2 2 2 2 2 3 3 3 3 3 3 3 3 3 2 2 2 2 2 2
6 6 6 6 6 7 7 7 8 8 8 9 9 9 8 8 8 8 7 7 6 6 6 6 6 6 5 5 5 5 4 4 4 4 4 4 4 4 4 4 4 3 3 2 2 2 2 2 2 2 3 3 4 4 4 4 4 4 5 5 4 4 4 4 4 3 3 3 3
6 6 6 6 6 6 6 7 7 8 8 8 9 9 9 9 9 8 8 8 8 8 7 7 7 6 6 6 5 5 4 4 4 4 4 4 5 5 4 4 3 3 3 2 2 2 3 3 4 4 4 5 6 6 7 7 7 7 7 7 7 7 7 7 6 6 6 5 5
7 6 6 6 6 6 6 6 7 7 7 8 8 9 9 8 8 8 8 8 8 8 8 7 7 7 7 6 6 5 5 5 5 5 5 5 5 5 5 4 4 3 3 3 3 3 4 4 5 5 5 6 6 7 7 8 8 9 9 9 9 9 9 8 8 8 8 7 6
8 7 7 6 6 6 6 6 6 7 7 7 8 8 8 8 8 8 8 8 8 8 8 8 8 8 7 7 6 6 6 6 6 6 6 6 6 5 5 4 4 3 3 3 3 3 4 4 4 5 5 5 6 7 7 8 9 9 9 9 9 9 9 9 9 8 7 7 7
8 8 7 7 7 6 6 6 6 6 7 7 7 7 7 7 7 7 7 7 7 7 7 8 8 7 7 7 7 7 7 7 7 7 7 7 6 5 5 4 4 3 3 3 3 4 4 4 4 4 5 5 6 7 8 8 9 9 9 9 9 9 9 8 8 7 7 7 7
9 9 9 8 7 7 7 7 7 7 7 7 7 7 6 6 6 6 6 7 7 7 7 7 7 7 7 7 7 7 7 8 7 7 7 6 6 5 4 4 4 3 3 3 4 4 4 4 4 5 5 6 7 8 8 9 9 9 9 9 8 8 7 7 7 7 6 6 7
11 11 10 9 8 8 7 7 7 7 7 7 6 6 6 5 5 6 6 6 7 7 7 7 7 7 7 7 7 7 7 7 7 7 6 6 5 5 4 4 4 4 4 4 4 4 5 5 5 5 6 7 7 8 9 9 9 9 8 8 7 7 7 6 6 6 6 6 6
11 12 11 11 10 9 9 8 8 8 7 7 6 6 5 5 5 5 5 6 6 6 6 7 7 7 7 8 8 8 7 7 7 7 6 6 6 5 5 5 4 4 5 5 5 5 5 5 6 6 6 7 8 9 9 9 9 9 8 8 7 7 6 6 6 6 6 6 6
11 12 12 12 12 11 11 10 9 8 8 7 6 6 6 6 6 5 5 5 5 6 6 6 7 7 7 8 8 8 8 8 7 7 7 7 7 6 6 6 5 5 5 5 6 6 6 6 6 6 7 7 8 9 9 10 9 9 9 8 8 7 6 6 6 7 7 7 7
10 11 12 12 13 13 13 12 10 9 8 7 6 6 6 6 6 6 5 5 5 5 6 6 6 7 7 8 8 9 9 9 8 8 8 8 8 7 7 6 6 6 6 6 7 7 7 7 7 7 7 8 8 9 9 9 9 9 9 9 8 7 7 7 7 7 8 8 7
10 10 11 12 13 14 14 14 12 11 9 7 7 6 6 6 6 6 6 6 6 5 5 5 6 6 7 8 8 9 9 9 9 9 8 8 8 8 8 7 7 7 7 7 8 8 8 8 8 8 8 8 8 9 9 9 9 9 9 8 7 7 8 8 8 8 8 8 8
10 10 10 11 12 13 14 15 14 12 10 8 8 7 7 7 6 6 6 7 6 6 5 6 6 6 7 7 8 8 9 9 9 9 9 8 8 8 8 8 7 8 8 8 8 8 8 8 9 9 9 10 9 9 9 9 9 8 8 7 7 7 8 9 9 9 8 8 8
10 10 10 11 12 13 14 14 14 13 12 11 10 9 9 8 7 7 7 8 7 7 7 7 7 7 7 8 8 8 8 8 8 9 9 8 8 9 9 9 8 8 8 9 9 9 9 9 9 10 10 10 10 10 10 10 9 8 8 7 7 7 8 9 10 10 9 9 9
10 10 10 10 11 12 13 14 14 14 14 14 13 11 11 10 9 9 9 9 9 9 9 8 8 8 9 9 9 9 8 8 8 8 9 8 8 9 9 9 8 8 8 8 8 8 9 9 10 10 10 10 10 10 11 11 10 9 8 8 9 9 9 10 11 12 12 11 11
Height
5704 5704 5704 5705 5705 5705 5706 5706 5706 5706 5706 5707 5707 5707 5707 5707 5707 5707 5707 5708 5708 5708 5707 5707 5708 5707 5707 5707 5708 5708 5707 5707 5708 5708 5708 5707 5707 5707 5707 5708 5708 5708 5708 5708 5708 5708 5708 5707 5707 5707 5707 5707 5707 5706 5706 5706 5706 5706 5706 5705 5705 5704 5704 5703 5703 5702 5702 5701 5701
5701 5701 5701 5701 5701 5702 5702 5702 5702 5702 5703 5703 5703 5703 5703 5703 5704 5704 5704 5704 5704 5704 5704 5704 5704 5704 5703 5703 5703 5703 5703 5703 5703 5703 5703 5703 5703 5703 5703 5703 5704 5704 5704 5704 5704 5704 5704 5703 5703 5703 5703 5702 5702 5702 5702 5702 5702 5702 5701 5701 5700 5700 5700 5699 5698 5698 5697 5697 5696
5698 5698 5698 5698 5698 5698 5699 5699 5699 5699 5699 5699 5699 5700 5700 5700 5700 5700 5700 5700 5700 5700 5700 5700 5700 5700 5699 5699 5699 5699 5699 5699 5699 5699 5699 5699 5699 5699 5699 5699 5699 5699 5699 5700 5700 5699 5699 5699 5699 5699 5698 5698 5698 5698 5698 5697 5697 5698 5697 5696 5696 5696 5696 5695 5694 5693 5693 5693 5692
5695 5695 5695 5695 5695 5696 5696 5696 5696 5696 5696 5696 5696 5696 5696 5696 5696 5696 5696 5696 5696 5696 5696 5696 5696 5696 5696 5695 5695 5695 5695 5695 5695 5695 5695 5695 5695 5695 5695 5694 5695 5695 5695 5695 5695 5695 5695 5695 5694 5694 5694 5694 5694 5693 5693 5693 5693 5693 5693 5692 5692 5691 5691 5691 5690 5689 5689 5688 5688
5692 5692 5692 5692 5692 5692 5692 5692 5692 5692 5692 5692 5692 5692 5692 5692 5692 5692 5692 5692 5692 5692 5692 5692 5692 5691 5691 5691 5691 5691 5691 5691 5691 5691 5691 5691 5690 5690 5690 5690 5690 5690 5690 5690 5691 5691 5690 5690 5690 5690 5689 5689 5689 5689 5689 5689 5689 5689 5688 5688 5688 5687 5687 5686 5686 5685 5685 5684 5683
5688 5688 5688 5689 5689 5689 5689 5689 5689 5689 5688 5689 5689 5689 5689 5689 5689 5689 5689 5689 5688 5688 5688 5688 5688 5687 5687 5687 5687 5687 5687 5687 5687 5687 5686 5686 5686 5686 5686 5686 5686 5685 5685 5686 5686 5686 5686 5686 5686 5685 5685 5684 5684 5684 5684 5684 5684 5684 5684 5683 5683 5683 5682 5682 5681 5681 5680 5680 5679
5685 5685 5685 5685 5685 5685 5685 5685 5685 5685 5685 5685 5685 5685 5685 5685 5685 5685 5685 5684 5684 5684 5684 5684 5683 5683 5683 5683 5683 5683 5683 5682 5682 5682 5682 5682 5682 5682 5681 5681 5681 5681 5681 5681 5681 5681 5681 5681 5681 5681 5680 5680 5680 5679 5679 5679 5679 5679 5679 5678 5678 5678 5678 5677 5676 5676 5676 5675 5674
5681 5681 5681 5681 5681 5681 5681 5681 5681 5681 5681 5681 5681 5681 5681 5681 5681 5681 5681 5680 5680 5680 5679 5679 5679 5679 5679 5679 5679 5678 5678 5678 5678 5678 5678 5678 5677 5677 5677 5677 5677 5676 5676 5676 5676 5676 5676 5676 5676 5676 5675 5675 5675 5675 5674 5674 5674 5674 5674 5674 5673 5673 5673 5672 5672 5671 5671 5671 5670
5678 5678 5678 5678 5677 5677 5677 5677 5677 5677 5677 5677 5677 5677 5677 5677 5677 5677 5676 5676 5676 5676 5676 5675 5675 5675 5675 5675 5675 5674 5674 5674 5674 5674 5673 5673 5673 5673 5673 5673 5672 5672 5672 5672 5672 5672 5672 5672 5671 5671 5671 5671 5670 5670 5670 5670 5670 5670 5669 5669 5669 5669 5668 5668 5667 5667 5666 5666 5666
5675 5675 5675 5675 5675 5674 5674 5674 5674 5673 5674 5674 5674 5674 5674 5674 5673 5673 5673 5672 5672 5672 5672 5671 5671 5671 5671 5671 5671 5670 5670 5670 5670 5670 5669 5669 5669 5669 5669 5669 5669 5668 5668 5668 5668 5668 5667 5667 5667 5667 5666 5666 5666 5666 5666 5666 5666 5666 5665 5665 5665 5664 5664 5663 5663 5663 5662 5662 5661
5672 5672 5672 5672 5671 5671 5671 5671 5671 5671 5671 5671 5671 5671 5671 5670 5670 5670 5669 5669 5669 5668 5668 5668 5668 5668 5668 5667 5667 5667 5666 5666 5666 5666 5666 5666 5666 5665 5665 5665 5665 5665 5664 5664 5664 5663 5663 5663 5663 5663 5662 5662 5662 5662 5661 5661 5661 5661 5661 5661 5661 5661 5660 5660 5659 5659 5659 5658 5657
5670 5669 5669 5669 5668 5668 5668 5668 5667 5667 5667 5667 5667 5667 5667 5667 5666 5666 5666 5666 5665 5665 5665 5665 5665 5665 5664 5664 5663 5663 5663 5663 5662 5662 5662 5662 5662 5661 5661 5661 5661 5661 5661 5660 5660 5660 5659 5659 5659 5659 5659 5658 5658 5658 5658 5657 5657 5657 5657 5657 5657 5656 5656 5656 5655 5655 5655 5654 5653
5667 5666 5666 5666 5666 5665 5665 5665 5664 5664 5664 5664 5664 5664 5664 5664 5663 5663 5662 5662 5662 5662 5661 5661 5661 5661 5661 5660 5660 5660 5660 5659 5659 5659 5658 5658 5658 5658 5658 5657 5657 5657 5657 5656 5656 5656 5656 5655 5655 5655 5655 5655 5654 5654 5654 5654 5653 5653 5653 5653 5653 5653 5652 5652 5651 5651 5651 5650 5650
5664 5664 5663 5663 5662 5662 5662 5661 5661 5661 5661 5661 5661 5661 5661 5661 5660 5660 5659 5659 5659 5658 5658 5658 5658 5657 5657 5657 5656 5656 5656 5656 5655 5655 5655 5655 5654 5654 5654 5654 5654 5653 5653 5653 5653 5652 5652 5651 5651 5651 5651 5651 5651 5650 5650 5650 5650 5649 5649 5649 5649 5648 5648 5648 5647 5647 5646 5646 5646
5661 5661 5660 5660 5660 5659 5659 5659 5658 5658 5658 5658 5658 5658 5658 5657 5657 5656 5656 5656 5655 5655 5655 5655 5654 5654 5654 5653 5653 5653 5652 5652 5652 5651 5651 5651 5651 5651 5650 5650 5650 5650 5650 5650 5649 5649 5648 5648 5648 5647 5647 5647 5647 5646 5646 5646 5646 5646 5645 5645 5645 5644 5644 5644 5644 5643 5643 5642 5641
5658 5658 5657 5657 5657 5656 5656 5656 5656 5655 5655 5655 5655 5655 5655 5654 5654 5653 5653 5652 5652 5652 5652 5651 5651 5651 5650 5650 5650 5649 5649 5648 5648 5648 5648 5647 5647 5647 5647 5646 5646 5646 5646 5646 5646 5645 5645 5645 5644 5644 5644 5643 5643 5643 5643 5642 5642 5642 5641 5641 5641 5641 5640 5640 5640 5639 5639 5638 5638
5656 5655 5655 5654 5654 5654 5653 5653 5653 5652 5652 5652 5652 5652 5651 5651 5651 5650 5650 5649 5649 5649 5649 5648 5648 5647 5647 5646 5646 5646 5646 5645 5645 5645 5644 5644 5644 5644 5643 5643 5643 5643 5643 5642 5642 5642 5642 5641 5641 5641 5640 5640 5640 5639 5639 5639 5638 5638 5638 5637 5637 5637 5636 5636 5636 5636 5635 5635 5634
5653 5652 5652 5652 5651 5651 5651 5650 5650 5650 5650 5649 5649 5649 5649 5648 5647 5647 5647 5646 5646 5646 5646 5645 5645 5644 5644 5643 5643 5643 5642 5642 5641 5641 5641 5641 5641 5640 5640 5640 5640 5640 5639 5639 5639 5639 5638 5638 5638 5637 5637 5637 5636 5636 5636 5635 5635 5635 5634 5634 5634 5633 5633 5633 5632 5632 5631 5631 5631
5650 5650 5649 5649 5649 5648 5648 5647 5647 5647 5647 5646 5646 5646 5646 5645 5645 5644 5644 5643 5643 5643 5642 5642 5642 5641 5641 5640 5640 5640 5639 5639 5638 5638 5638 5637 5637 5637 5637 5637 5636 5636 5636 5636 5635 5635 5635 5635 5635 5634 5634 5633 5633 5633 5632 5632 5631 5631 5631 5631 5630 5630 5629 5629 5628 5628 5628 5627 5627
5647 5647 5646 5646 5646 5646 5645 5645 5645 5644 5644 5644 5643 5643 5642 5642 5641 5641 5641 5640 5640 5640 5639 5639 5638 5638 5638 5637 5637 5636 5636 5636 5635 5635 5635 5634 5634 5634 5634 5633 5633 5633 5633 5632 5632 5632 5631 5631 5631 5631 5631 5630 5630 5629 5629 5628 5628 5628 5627 5627 5626 5626 5626 5625 5625 5624 5624 5623 5623
5644 5644 5643 5643 5643 5643 5642 5642 5642 5641 5641 5641 5640 5640 5639 5639 5638 5638 5638 5637 5637 5636 5636 5636 5635 5635 5635 5634 5634 5633 5633 5633 5632 5632 5631 5631 5631 5631 5631 5630 5630 5630 5629 5629 5629 5628 5628 5628 5628 5627 5627 5627 5626 5626 5626 5625 5625 5624 5624 5623 5623 5622 5622 5621 5621 5621 5620 5620 5619
5641 5641 5641 5640 5640 5640 5640 5639 5639 5638 5638 5637 5637 5636 5636 5636 5636 5635 5635 5634 5634 5633 5633 5632 5632 5632 5631 5631 5631 5630 5630 5630 5629 5629 5629 5628 5628 5628 5627 5627 5627 5626 5626 5626 5626 5625 5625 5625 5625 5624 5624 5624 5623 5623 5622 5622 5621 5621 5621 5620 5620 5619 5618 5618 5617 5617 5617 5616 5616
5638 5637 5637 5637 5637 5637 5637 5636 5636 5636 5635 5634 5634 5633 5633 5633 5632 5632 5631 5631 5631 5630 5630 5629 5629 5629 5628 5628 5628 5627 5627 5626 5626 5626 5626 5625 5625 5625 5624 5624 5624 5623 5623 5623 5622 5622 5622 5622 5621 5621 5621 5621 5620 5620 5619 5619 5618 5618 5617 5617 5616 5616 5615 5615 5614 5614 5614 5613 5613
5635 5634 5634 5634 5634 5634 5634 5633 5633 5632 5632 5631 5631 5630 5630 5630 5629 5629 5628 5628 5627 5627 5627 5626 5626 5626 5625 5625 5625 5624 5624 5624 5623 5623 5622 5622 5622 5621 5621 5621 5621 5621 5620 5620 5620 5619 5619 5619 5619 5618 5618 5618 5617 5617 5616 5616 5616 5615 5615 5614 5614 5613 5613 5612 5611 5611 5611 5610 5610
5631 5631 5631 5631 5631 5631 5630 5630 5629 5629 5628 5628 5627 5627 5626 5626 5626 5626 5625 5625 5624 5624 5623 5623 5623 5622 5622 5622 5621 5621 5621 5621 5620 5620 5620 5619 5619 5619 5618 5618 5618 5618 5617 5617 5617 5616 5616 5616 5616 5616 5615 5615 5614 5614 5613 5613 5613 5612 5612 5611 5611 5610 5610 5609 5609 5608 5608 5607 5607
5627 5627 5627 5627 5627 5627 5626 5626 5626 5625 5625 5624 5624 5624 5623 5623 5623 5622 5622 5621 5621 5621 5620 5620 5620 5619 5619 5619 5618 5618 5618 5617 5617 5617 5616 5616 5616 5616 5616 5615 5615 5615 5615 5614 5614 5614 5614 5613 5613 5613 5612 5612 5611 5611 5611 5610 5610 5609 5609 5608 5608 5607 5607 5606 5606 5606 5605 5605 5604
5624 5624 5624 5623 5623 5623 5623 5622 5622 5621 5621 5621 5621 5620 5620 5620 5619 5619 5618 5618 5618 5617 5617 5616 5616 5616 5616 5616 5615 5615 5614 5614 5614 5613 5613 5613 5613 5613 5612 5612 5612 5612 5611 5611 5611 5611 5611 5611 5610 5610 5609 5609 5608 5608 5608 5607 5607 5606 5606 5605 5605 5604 5604 5603 5603 5602 5602 5601 5601
5620 5620 5620 5620 5619 5619 5619 5618 5618 5618 5618 5617 5617 5617 5616 5616 5616 5615 5615 5615 5614 5614 5614 5613 5613 5613 5612 5612 5612 5611 5611 5611 5611 5610 5610 5610 5610 5610 5609 5609 5609 5609 5608 5608 5608 5608 5607 5607 5607 5607 5606 5606 5605 5605 5604 5604 5603 5603 5603 5602 5601 5601 5601 5600 5600 5599 5599 5598 5598
5616 5616 5616 5616 5615 5615 5615 5615 5614 5614 5614 5614 5613 5613 5613 5612 5612 5612 5611 5611 5611 5611 5610 5610 5610 5609 5609 5609 5608 5608 5607 5607 5607 5607 5606 5606 5606 5606 5606 5606 5606 5606 5605 5605 5604 5604 5604 5604 5604 5603 5603 5603 5602 5601 5601 5600 5600 5600 5599 5599 5598 5597 5597 5596 5596 5596 5595 5595 5594
5612 5611 5611 5611 5611 5611 5611 5611 5610 5610 5610 5610 5610 5609 5609 5609 5609 5608 5608 5607 5607 5607 5607 5606 5606 5606 5606 5605 5605 5604 5604 5604 5603 5603 5603 5603 5603 5603 5603 5602 5602 5602 5601 5601 5601 5601 5601 5600 5600 5600 5600 5599 5599 5598 5597 5597 5596 5596 5595 5595 5594 5594 5593 5593 5592 5592 5591 5591 5591
5607 5607 5607 5607 5607 5607 5606 5606 5606 5606 5606 5606 5606 5606 5606 5605 5605 5605 5604 5604 5604 5603 5603 5603 5602 5602 5602 5601 5601 5601 5600 5600 5600 5600 5600 5600 5599 5599 5599 5599 5598 5598 5598 5597 5597 5597 5597 5597 5596 5596 5596 5596 5595 5595 5594 5593 5593 5592 5591 5591 5591 5590 5590 5589 5589 5588 5588 5587 5587
5603 5603 5603 5602 5602 5602 5602 5602 5602 5602 5602 5602 5602 5602 5601 5601 5601 5601 5600 5600 5600 5600 5600 5599 5599 5598 5598 5598 5597 5597 5597 5596 5596 5596 5596 5596 5596 5596 5595 5595 5595 5594 5594 5594 5594 5594 5593 5593 5593 5592 5592 5592 5591 5591 5591 5590 5589 5588 5588 5587 5586 5586 5586 5585 5585 5584 5584 5583 5583
5599 5599 5598 5598 5598 5598 5598 5598 5597 5597 5598 5597 5597 5597 5597 5597 5597 5596 5596 5596 5596 5596 5596 5596 5595 5595 5594 5594 5594 5593 5593 5593 5593 5593 5592 5592 5592 5592 5591 5591 5591 5591 5591 5590 5590 5590 5590 5589 5589 5589 5588 5588 5588 5587 5587 5586 5586 5585 5584 5583 5583 5582 5581 5581 5581 5580 5580 5579 5578
5594 5594 5594 5594 5593 5593 5593 5593 5593 5593 5593 5593 5593 5593 5593 5593 5592 5592 5592 5592 5592 5592 5592 5591 5591 5591 5591 5590 5590 5590 5590 5590 5589 5589 5589 5588 5588 5588 5588 5588 5587 5587 5587 5586 5586 5586 5586 5586 5585 5585 5585 5584 5584 5584 5583 5583 5582 5581 5581 5580 5579 5578 5577 5577 5576 5576 5575 5575 5574
5590 5590 5589 5589 5589 5589 5589 5589 5589 5589 5589 5588 5588 5588 5588 5588 5588 5588 5588 5588 5588 5588 5587 5587 5587 5587 5586 5586 5586 5586 5586 5586 5586 5585 5585 5585 5584 5584 5584 5584 5584 5583 5583 5583 5582 5582 5582 5582 5581 5581 5581 5581 5581 5580 5580 5579 5579 5578 5577 5576 5576 5575 5574 5573 5572 5572 5571 5570 5570
5586 5585 5585 5584 5584 5584 5584 5584 5584 5584 5584 5584 5583 5583 5583 5583 5583 5584 5584 5584 5584 5583 5583 5583 5583 5583 5583 5583 5582 5582 5582 5582 5582 5581 5581 5581 5581 5581 5580 5580 5580 5579 5579 5579 5579 5578 5578 5578 5578 5577 5577 5577 5576 5576 5576 5576 5575 5574 5574 5573 5572 5571 5570 5569 5568 5568 5567 5566 5565
5581 5581 5580 5580 5580 5580 5580 5580 5579 5579 5579 5579 5579 5579 5579 5579 5579 5579 5579 5579 5579 5579 5579 5579 5579 5579 5579 5579 5579 5578 5578 5578 5578 5577 5577 5577 5577 5577 5576 5576 5576 5576 5575 5575 5575 5575 5574 5574 5574 5574 5573 5573 5573 5572 5572 5571 5571 5571 5570 5569 5568 5567 5566 5565 5565 5564 5563 5562 5561
5577 5576 5576 5576 5575 5575 5575 5575 5575 5574 5574 5574 5574 5574 5574 5574 5574 5574 5574 5574 5574 5574 5574 5575 5575 5575 5575 5575 5574 5574 5574 5574 5574 5573 5573 5573 5573 5573 5572 5572 5572 5571 5571 5571 5571 5571 5570 5570 5570 5570 5570 5569 5569 5569 5568 5568 5567 5566 5566 5565 5564 5563 5562 5561 5561 5560 5559 5558 5556
5573 5572 5572 5571 5571 5571 5571 5570 5570 5570 5569 5569 5569 5570 5570 5570 5570 5570 5570 5570 5570 5570 5570 5570 5570 5570 5570 5570 5570 5570 5570 5570 5570 5569 5569 5569 5569 5569 5568 5568 5568 5567 5567 5567 5567 5566 5566 5566 5566 5566 5566 5565 5565 5565 5564 5564 5563 5562 5561 5561 5560 5559 5558 5557 5557 5556 5555 5553 5552
5568 5567 5567 5567 5566 5566 5566 5566 5565 5565 5565 5565 5565 5565 5565 5565 5565 5565 5565 5565 5565 5565 5565 5566 5566 5566 5566 5566 5566 5566 5566 5565 5565 5565 5565 5565 5565 5564 5564 5564 5564 5563 5563 5563 5563 5563 5562 5562 5562 5562 5561 5561 5561 5561 5560 5560 5559 5558 5557 5557 5556 5555 5554 5553 5552 5551 5551 5549 5548
5563 5563 5562 5562 5562 5562 5561 5561 5561 5561 5561 5561 5561 5561 5561 5561 5561 5561 5561 5561 5561 5561 5561 5561 5561 5561 5561 5561 5561 5561 5561 5561 5561 5561 5561 5561 5560 5560 5560 5560 5560 5559 5559 5559 5559 5559 5558 5558 5558 5558 5557 5557 5557 5556 5556 5555 5555 5554 5553 5552 5552 5551 5550 5549 5548 5547 5546 5545 5544